Location: Dötzum
(52.0808°N, 9.8063°E)
Time: 05:41:05
(UTC+00:00)

USA 267 - Pass Details

Date: 27 May 2022
Orbit: 1101 x 1106 km, 123.0° (Epoch: 22 June)

Event Time Altitude Azimuth Distance (km) Brightness Sun altitude
Exits shadow 00:16:53 21° 180° (S) 2,249 4.3 -15.5°
Maximum altitude 00:20:20 33° 228° (SW) 1,746 3.9 -15.4°
Drops below altitude 10° 00:26:10 10° 291° (WNW) 2,966 5.6 -15.2°
Sets 00:28:57 0° 301° (WNW) 3,927 6.3 -15.0°
